Lid_Strength_Index
15 15 15 16 16 16 17 18 18 18 18 19 19 19 20 20 20 20 20 20 20 20 20 21 21 21 21 21 21 21 21 21 23 21 20 19 20 20 19 18 18 18 17
14 15 15 16 16 17 17 18 18 19 19 19 19 19 20 20 20 20 21 20 21 21 21 21 22 21 22 21 22 22 22 21 23 24 21 21 21 20 20 20 18 17 17
15 15 16 16 17 16 17 18 18 18 19 19 19 19 20 20 20 20 20 21 21 21 21 21 22 22 22 22 22 22 22 22 22 23 23 21 21 20 20 19 19 18 16
15 16 16 16 16 16 17 18 18 18 19 19 19 19 20 20 20 20 21 21 21 21 21 21 21 22 21 22 22 22 22 23 23 23 22 22 21 19 19 19 19 16 16
15 16 16 16 16 16 18 18 18 19 19 19 20 20 20 21 20 20 20 22 22 21 20 20 20 20 19 19 21 22 22 23 23 22 22 21 20 19 18 17 18 18 17
15 15 15 16 17 17 18 18 19 19 20 20 20 21 21 20 17 17 19 21 20 21 21 20 19 19 18 17 16 16 17 20 21 21 20 20 19 18 17 17 17 18 20
15 15 16 17 18 19 19 19 19 20 20 21 21 21 21 20 16 15 16 19 19 20 19 19 19 18 18 19 18 17 16 16 15 17 19 18 18 17 17 18 18 18 18
15 16 17 18 18 19 19 19 19 20 21 21 21 21 21 20 14 14 15 18 18 18 18 18 18 18 18 18 18 19 18 18 17 16 16 16 16 15 15 15 16 16 15
16 16 17 18 18 20 20 19 20 20 21 21 21 21 21 21 14 14 14 18 19 19 19 18 18 18 16 15 17 19 18 17 15 14 14 14 13 13 14 17 18 19 20
17 16 18 18 18 19 19 20 20 20 20 21 22 21 21 22 14 13 15 19 20 20 19 18 17 17 15 14 17 17 18 17 18 18 16 18 17 18 16 17 18 21 20
18 19 20 19 19 19 20 20 20 21 21 21 22 22 22 22 18 15 14 19 20 21 20 20 18 16 16 15 13 17 18 17 17 21 21 21 20 19 19 17 17 18 19
20 21 21 20 20 20 21 21 22 21 22 23 24 24 22 21 21 16 15 16 17 21 21 19 18 17 15 15 15 16 15 16 23 23 23 22 21 20 19 17 17 17 15
19 20 20 21 21 21 21 22 23 22 22 24 23 23 23 22 21 17 15 15 16 19 19 18 16 17 17 18 18 17 18 22 23 24 23 22 20 19 18 18 17 16 15
19 20 21 21 22 22 22 22 22 22 22 23 23 23 23 23 22 19 18 17 16 17 18 22 21 20 19 20 21 21 21 21 21 22 22 20 19 20 20 18 18 16 18
20 20 21 21 22 22 21 22 21 21 20 22 21 21 22 22 21 18 19 21 21 20 27 29 27 24 24 23 23 22 21 21 21 21 21 21 21 20 20 18 16 17 19
20 21 22 22 22 22 22 23 18 18 18 17 17 19 19 18 17 17 16 16 16 17 29 32 28 26 25 24 24 23 21 21 21 21 21 21 22 21 21 18 16 18 20
18 19 21 22 23 23 23 24 24 20 17 16 16 17 17 16 15 15 14 15 15 21 30 31 30 27 26 25 24 23 23 22 21 22 22 22 22 20 19 18 17 18 20
18 18 20 21 22 22 23 23 22 22 21 20 16 17 16 15 15 15 15 16 23 26 32 32 32 31 27 26 25 25 24 24 23 23 23 23 22 20 19 18 18 20 21
18 19 21 21 21 21 22 22 21 21 21 20 20 18 16 15 15 15 16 24 26 29 31 31 32 29 28 28 28 28 28 26 25 25 24 23 21 20 18 18 19 19 20
16 17 20 20 21 21 21 21 20 19 20 20 20 19 17 18 21 24 26 27 28 29 28 30 30 32 31 32 32 32 29 27 26 24 23 21 20 19 18 19 19 20 21
15 17 19 19 19 19 19 19 18 19 19 19 19 19 17 21 24 26 27 27 28 28 29 30 31 33 33 34 35 34 30 27 26 24 22 21 20 18 18 19 19 20 21
16 18 18 18 18 19 18 18 19 19 19 22 21 17 16 22 24 26 26 27 28 29 30 31 32 33 32 34 35 32 29 28 26 24 22 21 19 17 18 20 20 20 21
18 19 19 19 18 18 19 19 20 21 22 22 20 19 23 24 26 26 27 29 29 29 30 32 32 32 32 33 33 29 29 28 26 24 23 21 18 18 19 20 21 21 22
20 20 20 20 20 20 20 21 22 22 22 22 22 24 25 26 27 27 28 28 29 31 33 33 32 33 32 33 33 31 29 27 26 23 21 18 18 18 19 20 21 21 22
21 22 22 22 22 23 23 23 24 23 24 24 25 26 27 27 27 28 28 29 30 31 31 32 32 33 32 33 32 31 29 26 24 20 17 17 17 18 19 20 21 21 22
24 24 24 24 25 25 25 26 26 26 26 27 26 26 26 26 27 28 29 30 30 31 32 33 34 33 33 31 30 27 24 20 18 15 16 16 17 18 20 20 21 22 22